CW0927 Weather Reports


Display with metric or nautical units.
time (UTC)temp
F
wind
direction
speed
MPH
gust
MPH
rain 1hr
in
rain 24hr
in
rain mn
in
humidity
%
barometer
mb
20260902153836 87 15 1.0 4.0 0.00 0.13 0.00 78 1018.1
20260902153337 88 113 1.0 4.0 0.00 0.13 0.00 78 1018.2
20260902152836 87 333 0.0 4.0 0.00 0.13 0.00 79 1018.2
20260902152339 87 57 0.0 4.0 0.00 0.13 0.00 80 1018.2
20260902151840 87 22 1.0 4.0 0.00 0.13 0.00 80 1018.3
20260902151321 86 16 0.0 4.0 0.00 0.13 0.00 80 1018.2
20260902150830 85 24 1.0 4.0 0.00 0.13 0.00 82 1018.2
20260902150333 85 122 1.0 4.0 0.00 0.13 0.00 83 1018.2
20260902145831 85 98 1.0 3.0 0.00 0.13 0.00 82 1018.3
20260902145401 85 111 0.0 3.0 0.00 0.13 0.00 84 1018.2
20260902144843 84 107 1.0 3.0 0.00 0.13 0.00 84 1018.2
20260902144343 84 54 0.0 3.0 0.00 0.13 0.00 85 1018.2
20260902143832 85 58 1.0 4.0 0.00 0.13 0.00 84 1018.2
20260902143335 84 53 1.0 4.0 0.00 0.13 0.00 85 1018.3
20260902142837 85 12 0.0 2.0 0.00 0.13 0.00 84 1018.2
20260902142341 85 117 0.0 5.0 0.00 0.13 0.00 84 1018.2
20260902141843 85 5 1.0 5.0 0.00 0.13 0.00 84 1018.2
20260902141344 85 121 1.0 5.0 0.00 0.13 0.00 86 1018.1
20260902140848 84 36 1.0 5.0 0.00 0.13 0.00 86 1018.1
20260902140349 84 48 0.0 3.0 0.00 0.13 0.00 88 1018.1
20260902135858 84 67 1.0 4.0 0.00 0.13 0.00 89 1018.0
20260902135338 83 66 1.0 4.0 0.00 0.13 0.00 91 1018.0
20260902134835 82 69 1.0 3.0 0.00 0.13 0.00 94 1018.1
20260902134337 81 44 1.0 3.0 0.00 0.13 0.00 95 1018.0
20260902133838 81 61 1.0 3.0 0.00 0.13 0.00 96 1018.0
20260902133339 81 84 0.0 3.0 0.00 0.13 0.00 96 1018.0
20260902132840 81 40 0.0 3.0 0.00 0.13 0.00 96 1018.0
20260902132342 80 45 1.0 2.0 0.00 0.13 0.00 96 1018.0
20260902131839 80 43 0.0 1.0 0.00 0.13 0.00 96 1018.2
20260902131341 80 331 0.0 2.0 0.00 0.13 0.00 96 1018.2
20260902130844 80 9 0.0 2.0 0.00 0.13 0.00 96 1018.1
20260902130327 80 5 0.0 2.0 0.00 0.13 0.00 96 1018.1
20260902125835 79 10 0.0 3.0 0.00 0.13 0.00 97 1018.2
20260902125338 79 322 0.0 3.0 0.00 0.13 0.00 97 1018.3
20260902124835 78 319 0.0 2.0 0.00 0.13 0.00 96 1018.3
20260902124338 78 5 0.0 1.0 0.00 0.13 0.00 96 1018.2
20260902123840 78 19 0.0 3.0 0.00 0.13 0.00 96 1018.2
20260902123342 78 21 0.0 3.0 0.00 0.13 0.00 96 1018.0
20260902122822 78 336 1.0 3.0 0.00 0.13 0.00 96 1018.1
20260902122353 78 9 0.0 1.0 0.00 0.13 0.00 96 1018.1
20260902121836 78 5 0.0 1.0 0.00 0.13 0.00 96 1018.1
20260902121341 77 336 0.0 2.0 0.00 0.13 0.00 96 1018.1
20260902120845 77 281 0.0 2.0 0.00 0.13 0.00 96 1018.1
20260902120348 77 21 0.0 1.0 0.00 0.13 0.00 95 1018.1
20260902115827 77 21 0.0 1.0 0.00 0.13 0.00 95 1018.0
20260902115357 77 20 0.0 1.0 0.00 0.13 0.00 95 1018.0
20260902114834 77 38 0.0 0.0 0.00 0.13 0.00 95 1017.9
20260902114405 76 38 0.0 0.0 0.00 0.13 0.00 95 1017.9
20260902113846 76 38 0.0 0.0 0.00 0.13 0.00 95 1018.0
20260902113350 76 38 0.0 0.0 0.00 0.13 0.00 95 1018.0
20260902112849 76 38 0.0 0.0 0.00 0.13 0.00 95 1017.9
20260902112330 76 38 0.0 0.0 0.00 0.13 0.00 95 1017.6
20260902111901 76 38 0.0 0.0 0.00 0.13 0.00 94 1017.6
20260902111342 76 38 0.0 0.0 0.00 0.13 0.00 94 1017.6
20260902110846 76 38 0.0 0.0 0.00 0.13 0.00 94 1017.6
20260902110338 76 38 0.0 0.0 0.00 0.13 0.00 94 1017.6
20260902105840 76 51 0.0 0.0 0.00 0.13 0.00 94 1017.5
20260902105323 76 53 0.0 0.0 0.00 0.13 0.00 94 1017.6
20260902104823 76 53 0.0 0.0 0.00 0.13 0.00 94 1017.6
20260902104334 76 53 0.0 0.0 0.00 0.13 0.00 94 1017.5
20260902103839 76 53 0.0 0.0 0.00 0.13 0.00 94 1017.5
20260902103344 76 53 0.0 0.0 0.00 0.13 0.00 94 1017.4
20260902102845 76 53 0.0 0.0 0.00 0.13 0.00 94 1017.4
20260902102349 76 53 0.0 0.0 0.00 0.13 0.00 94 1017.3
20260902101853 76 53 0.0 0.0 0.00 0.13 0.00 94 1017.2
20260902101336 76 53 0.0 0.0 0.00 0.13 0.00 94 1017.3
20260902100839 76 53 0.0 0.0 0.00 0.13 0.00 94 1017.4
20260902100341 76 53 0.0 0.0 0.00 0.13 0.00 94 1017.4
20260902095841 76 53 0.0 0.0 0.00 0.13 0.00 94 1017.3
20260902095342 76 53 0.0 0.0 0.00 0.13 0.00 94 1017.2
20260902094841 76 53 0.0 0.0 0.00 0.13 0.00 94 1017.2
20260902094343 76 53 0.0 0.0 0.00 0.13 0.00 94 1017.2
20260902093844 76 53 0.0 0.0 0.00 0.13 0.00 94 1017.2
20260902093327 76 53 0.0 0.0 0.00 0.13 0.00 94 1017.0
20260902092834 76 53 0.0 0.0 0.00 0.13 0.00 94 1016.9
20260902092336 76 53 0.0 0.0 0.00 0.13 0.00 94 1016.9
20260902091839 76 53 0.0 0.0 0.00 0.13 0.00 94 1016.9
20260902091342 76 53 0.0 0.0 0.00 0.13 0.00 94 1016.8
20260902090844 76 53 0.0 0.0 0.00 0.13 0.00 93 1016.7
20260902090325 76 53 0.0 0.0 0.00 0.13 0.00 93 1016.7
20260902085855 76 53 0.0 0.0 0.00 0.13 0.00 93 1016.7
20260902085339 76 53 0.0 0.0 0.00 0.13 0.00 93 1016.6
20260902084841 76 53 0.0 0.0 0.00 0.13 0.00 93 1016.6
20260902084323 76 53 0.0 0.0 0.00 0.13 0.00 93 1016.6
20260902083825 76 53 0.0 0.0 0.00 0.13 0.00 93 1016.6
20260902083335 76 63 0.0 0.0 0.00 0.13 0.00 93 1016.7
20260902082836 76 63 0.0 0.0 0.00 0.13 0.00 93 1016.8
20260902082338 76 63 0.0 0.0 0.00 0.13 0.00 93 1016.8
20260902081840 77 66 0.0 0.0 0.00 0.13 0.00 93 1016.8
20260902081324 77 66 0.0 0.0 0.00 0.13 0.00 93 1016.8
20260902080827 77 66 0.0 0.0 0.00 0.13 0.00 93 1016.7
20260902080330 76 66 0.0 0.0 0.00 0.13 0.00 93 1016.7
20260902075830 76 66 0.0 0.0 0.00 0.14 0.00 93 1016.7
20260902075327 76 66 0.0 0.0 0.00 0.14 0.00 92 1016.7
20260902074829 76 66 0.0 0.0 0.00 0.14 0.00 92 1016.9
20260902074332 76 66 0.0 0.0 0.00 0.14 0.00 92 1016.9
20260902073833 76 66 0.0 0.0 0.00 0.14 0.00 92 1016.9
20260902073336 76 66 0.0 0.0 0.00 0.14 0.00 92 1016.9
20260902072837 76 66 0.0 0.0 0.00 0.14 0.00 92 1016.9
20260902072339 76 66 0.0 0.0 0.00 0.14 0.00 92 1017.0
20260902071840 76 66 0.0 0.0 0.00 0.14 0.00 92 1017.1
20260902071322 76 66 0.0 0.0 0.00 0.14 0.00 92 1017.1
20260902070825 76 66 0.0 0.0 0.00 0.14 0.00 92 1017.1
20260902070330 76 66 0.0 0.0 0.00 0.14 0.00 92 1017.1
20260902065833 76 66 0.0 0.0 0.00 0.14 0.00 92 1017.0
20260902065336 76 66 0.0 0.0 0.00 0.14 0.00 92 1017.1
20260902064838 76 66 0.0 0.0 0.00 0.14 0.00 92 1017.2
20260902064336 76 66 0.0 0.0 0.00 0.14 0.00 92 1017.2
20260902063838 76 66 0.0 0.0 0.00 0.14 0.00 92 1017.3
20260902063340 76 66 0.0 0.0 0.00 0.14 0.00 92 1017.3
20260902062840 76 66 0.0 0.0 0.00 0.14 0.00 91 1017.4
20260902062323 76 66 0.0 0.0 0.00 0.14 0.00 91 1017.4
20260902061853 76 66 0.0 0.0 0.00 0.14 0.00 91 1017.4
20260902061402 77 66 0.0 0.0 0.00 0.14 0.00 91 1017.3
20260902060823 77 66 0.0 0.0 0.00 0.14 0.00 91 1017.3
20260902060326 77 66 0.0 0.0 0.00 0.14 0.00 91 1017.4
20260902055854 77 66 0.0 0.0 0.00 0.14 0.00 91 1017.4
20260902055336 77 66 0.0 0.0 0.00 0.14 0.00 91 1017.3
20260902054839 77 66 0.0 0.0 0.00 0.14 0.00 91 1017.4
20260902054338 77 66 0.0 0.0 0.00 0.14 0.00 91 1017.5
20260902053841 77 66 0.0 0.0 0.00 0.14 0.00 91 1017.5
20260902053326 77 66 0.0 0.0 0.00 0.14 0.00 91 1017.5
20260902052856 77 66 0.0 0.0 0.00 0.14 0.00 91 1017.5
20260902052338 77 66 0.0 0.0 0.00 0.14 0.00 91 1017.5
20260902051841 77 66 0.0 0.0 0.00 0.14 0.00 91 1017.5
20260902051324 77 66 0.0 0.0 0.00 0.14 0.00 91 1017.5
20260902050825 77 66 0.0 0.0 0.00 0.14 0.00 91 1017.5
20260902050335 77 66 0.0 0.0 0.00 0.14 0.00 91 1017.5
20260902045835 77 66 0.0 0.0 0.00 0.14 0.00 91 1017.3
20260902045338 77 66 0.0 0.0 0.00 0.14 0.00 91 1017.2
20260902044839 77 66 0.0 0.0 0.00 0.14 0.00 91 1017.3
20260902044341 78 66 0.0 0.0 0.00 0.14 0.00 91 1017.3
20260902043839 78 66 0.0 0.0 0.00 0.14 0.00 91 1017.4
20260902043343 78 66 0.0 0.0 0.00 0.14 0.00 91 1017.4
20260902042823 78 66 0.0 0.0 0.00 0.14 0.00 91 1017.5
20260902042324 78 66 0.0 0.0 0.00 0.14 0.00 90 1017.5
20260902041855 78 66 0.0 0.0 0.00 0.14 0.00 90 1017.6
20260902041342 78 66 0.0 0.0 0.00 0.14 0.00 90 1017.7
20260902040824 78 66 0.0 0.0 0.00 0.14 0.00 90 1017.9
20260902040356 78 66 0.0 0.0 0.00 0.14 0.00 90 1017.9
20260902035834 78 66 0.0 0.0 0.00 0.14 0.14 90 1017.9
20260902035338 78 66 0.0 0.0 0.00 0.14 0.14 90 1017.9
20260902034842 78 66 0.0 0.0 0.00 0.14 0.14 90 1018.0
20260902034347 78 66 0.0 0.0 0.00 0.14 0.14 90 1018.1
20260902033847 78 66 0.0 0.0 0.00 0.14 0.14 90 1018.1
20260902033339 78 66 0.0 0.0 0.00 0.14 0.14 90 1018.2
20260902032841 78 66 0.0 0.0 0.00 0.14 0.14 90 1018.3
20260902032325 78 66 0.0 0.0 0.00 0.14 0.14 90 1018.3
20260902031829 78 66 0.0 0.0 0.00 0.14 0.14 90 1018.3
20260902031328 78 66 0.0 0.0 0.00 0.14 0.14 90 1018.2
20260902030828 78 66 0.0 0.0 0.00 0.14 0.14 90 1018.3
20260902030329 79 66 0.0 0.0 0.00 0.14 0.14 90 1018.3
20260902025827 79 66 0.0 0.0 0.00 0.14 0.14 90 1018.3
20260902025326 79 66 0.0 0.0 0.00 0.14 0.14 90 1018.4
20260902024826 79 66 0.0 0.0 0.00 0.14 0.14 90 1018.4
20260902024326 79 66 0.0 0.0 0.00 0.14 0.14 89 1018.4
20260902023829 79 66 0.0 0.0 0.00 0.14 0.14 89 1018.4
20260902023334 79 66 0.0 0.0 0.00 0.14 0.14 89 1018.4
20260902022900 79 66 0.0 0.0 0.00 0.14 0.14 89 1018.4
20260902022323 79 66 0.0 0.0 0.00 0.14 0.14 89 1018.5
20260902021827 79 66 0.0 0.0 0.00 0.14 0.14 89 1018.5
20260902021331 79 66 0.0 0.0 0.00 0.14 0.14 89 1018.5
20260902020835 79 66 0.0 0.0 0.00 0.14 0.14 89 1018.5
20260902020346 79 66 0.0 0.0 0.00 0.14 0.14 89 1018.4
20260902015847 79 66 0.0 1.0 0.00 0.14 0.14 89 1018.3
20260902015330 79 66 0.0 1.0 0.00 0.14 0.14 89 1018.3
20260902014834 79 66 0.0 0.0 0.00 0.14 0.14 89 1018.3
20260902014406 79 66 0.0 0.0 0.00 0.14 0.14 89 1018.3
20260902013849 79 66 0.0 0.0 0.00 0.14 0.14 89 1018.2
20260902013334 79 66 0.0 0.0 0.00 0.14 0.14 89 1018.2
20260902012833 79 66 0.0 0.0 0.00 0.14 0.14 89 1018.1
20260902012336 79 66 0.0 1.0 0.00 0.14 0.14 89 1018.1
20260902011840 80 66 0.0 1.0 0.00 0.14 0.14 88 1018.0
20260902011324 80 43 0.0 0.0 0.00 0.14 0.14 88 1018.0
20260902010855 80 43 0.0 0.0 0.00 0.14 0.14 88 1018.0
20260902010334 80 43 0.0 0.0 0.00 0.14 0.14 88 1018.0
20260902005833 80 43 0.0 0.0 0.00 0.14 0.14 88 1018.1
20260902005342 80 43 0.0 0.0 0.00 0.14 0.14 88 1018.0
20260902004846 80 43 0.0 0.0 0.00 0.14 0.14 87 1018.0
20260902004329 80 43 0.0 0.0 0.00 0.14 0.14 87 1018.0
20260902003833 80 43 0.0 0.0 0.00 0.14 0.14 87 1018.0
20260902003339 80 43 0.0 0.0 0.00 0.14 0.14 86 1017.9
20260902002835 80 43 0.0 0.0 0.00 0.14 0.14 86 1017.9
20260902002340 81 43 0.0 1.0 0.00 0.14 0.14 86 1017.9
20260902001824 81 43 0.0 1.0 0.00 0.14 0.14 86 1017.8
20260902001328 81 43 0.0 1.0 0.00 0.14 0.14 85 1017.8
20260902000859 81 43 0.0 1.0 0.00 0.14 0.14 85 1017.7
20260902000344 81 44 0.0 2.0 0.00 0.14 0.14 85 1017.7
20260901235823 81 80 0.0 2.0 0.00 0.14 0.14 85 1017.7
20260901235357 81 80 0.0 2.0 0.00 0.14 0.14 84 1017.8
20260901234839 81 89 0.0 2.0 0.00 0.14 0.14 85 1017.8
20260901234343 82 90 0.0 1.0 0.00 0.14 0.14 85 1017.8
20260901233848 82 90 0.0 1.0 0.00 0.14 0.14 84 1017.7
20260901233333 82 90 0.0 1.0 0.00 0.14 0.14 84 1017.8
20260901232834 82 90 0.0 1.0 0.00 0.14 0.14 84 1017.9
20260901232332 82 91 0.0 1.0 0.00 0.14 0.14 84 1017.8
20260901231835 82 59 0.0 1.0 0.00 0.14 0.14 84 1017.6
20260901231407 82 59 0.0 1.0 0.00 0.14 0.14 84 1017.5
20260901230825 82 59 0.0 0.0 0.00 0.14 0.14 84 1017.5
20260901230329 82 59 0.0 2.0 0.00 0.14 0.14 84 1017.4
20260901225838 82 59 0.0 2.0 0.00 0.17 0.14 83 1017.4
20260901225342 82 53 1.0 2.0 0.00 0.17 0.14 83 1017.5
20260901224824 83 355 0.0 0.0 0.00 0.17 0.14 83 1017.4
20260901224330 83 355 0.0 1.0 0.00 0.17 0.14 83 1017.3
20260901223833 83 355 0.0 1.0 0.00 0.17 0.14 83 1017.3
20260901223346 83 355 0.0 1.0 0.00 0.17 0.14 83 1017.3
20260901222847 83 349 0.0 1.0 0.00 0.17 0.14 82 1017.4
20260901222333 84 349 0.0 1.0 0.00 0.17 0.14 82 1017.5
20260901221905 84 304 0.0 3.0 0.00 0.17 0.14 82 1017.4
20260901221349 84 5 0.0 3.0 0.00 0.17 0.14 82 1017.3
20260901220831 84 135 0.0 1.0 0.00 0.17 0.14 82 1017.2
20260901220336 85 5 0.0 1.0 0.00 0.17 0.14 82 1017.0
20260901215838 85 24 0.0 2.0 0.00 0.23 0.14 82 1017.0
20260901215323 85 11 0.0 2.0 0.00 0.23 0.14 82 1017.0
20260901214829 85 35 0.0 2.0 0.00 0.23 0.14 82 1017.0
20260901214401 85 75 1.0 2.0 0.00 0.23 0.14 82 1016.8
20260901213824 85 14 0.0 2.0 0.00 0.23 0.14 82 1016.7
20260901213329 86 74 0.0 2.0 0.00 0.23 0.14 83 1016.7
20260901212831 86 87 0.0 4.0 0.00 0.23 0.14 83 1016.7
20260901212329 86 88 2.0 4.0 0.00 0.23 0.14 84 1016.9
20260901211900 85 122 0.0 2.0 0.00 0.23 0.14 85 1017.0
20260901211324 85 111 0.0 2.0 0.00 0.23 0.14 86 1017.0
20260901210827 84 28 0.0 2.0 0.00 0.23 0.14 86 1017.0
20260901210333 84 83 0.0 1.0 0.00 0.23 0.14 86 1017.0
20260901205834 84 83 0.0 2.0 0.00 0.25 0.14 86 1017.0
20260901205336 84 96 0.0 2.0 0.00 0.25 0.14 87 1017.0
20260901204837 84 20 0.0 1.0 0.00 0.25 0.14 89 1017.0
20260901204337 83 21 0.0 1.0 0.00 0.25 0.14 90 1017.1
20260901203837 83 21 0.0 1.0 0.00 0.25 0.14 91 1017.0
20260901203338 82 22 0.0 1.0 0.01 0.25 0.14 91 1017.1
20260901202835 82 22 0.0 1.0 0.02 0.25 0.14 91 1017.2
20260901202336 81 22 0.0 1.0 0.06 0.25 0.14 91 1017.2
20260901201832 81 22 0.0 0.0 0.09 0.25 0.14 91 1017.3
20260901201401 81 22 0.0 0.0 0.13 0.25 0.14 91 1017.3
20260901200824 80 22 0.0 1.0 0.13 0.25 0.14 91 1017.3
20260901200326 80 22 0.0 0.0 0.13 0.25 0.14 90 1017.4
20260901195825 80 22 0.0 0.0 0.13 0.25 0.14 90 1017.4
20260901195328 80 22 0.0 1.0 0.13 0.25 0.14 90 1017.3
20260901194859 80 22 0.0 1.0 0.13 0.25 0.14 90 1017.4
20260901194341 80 22 0.0 1.0 0.13 0.25 0.14 89 1017.3
20260901193825 80 22 0.0 1.0 0.13 0.25 0.14 89 1017.5
20260901193329 80 355 0.0 2.0 0.12 0.24 0.13 88 1017.5
20260901192900 80 67 0.0 4.0 0.11 0.23 0.12 87 1017.7
20260901192341 81 92 1.0 4.0 0.07 0.19 0.08 86 1017.9
20260901191838 82 74 1.0 7.0 0.03 0.15 0.04 86 1017.9
20260901191340 82 5 2.0 7.0 0.00 0.12 0.01 85 1018.0
20260901190822 83 78 1.0 5.0 0.00 0.12 0.01 84 1018.1
20260901190334 83 73 0.0 5.0 0.00 0.12 0.01 83 1018.0
20260901185836 84 75 1.0 8.0 0.00 0.12 0.01 81 1018.1
20260901185339 84 78 2.0 8.0 0.00 0.12 0.01 79 1018.1
20260901184823 85 81 2.0 6.0 0.00 0.12 0.01 78 1018.0
20260901184326 85 45 1.0 5.0 0.00 0.12 0.01 77 1018.0
20260901183830 86 113 3.0 6.0 0.00 0.12 0.01 76 1018.1
20260901183342 87 128 1.0 4.0 0.00 0.12 0.01 76 1018.1
20260901182843 87 86 2.0 4.0 0.00 0.12 0.01 76 1018.3
20260901182347 87 22 0.0 3.0 0.00 0.12 0.01 76 1018.4
20260901181847 88 360 0.0 4.0 0.00 0.12 0.01 74 1018.4
20260901181344 88 42 1.0 5.0 0.00 0.12 0.01 73 1018.3
20260901180848 89 28 2.0 5.0 0.00 0.12 0.01 72 1018.3
20260901180352 89 355 1.0 7.0 0.00 0.12 0.01 76 1018.3
20260901175850 88 105 2.0 7.0 0.00 0.12 0.01 75 1018.3
20260901175332 88 55 1.0 4.0 0.00 0.12 0.01 76 1018.3
20260901174836 88 100 2.0 4.0 0.00 0.12 0.01 77 1018.5
20260901174336 87 329 1.0 3.0 0.00 0.12 0.01 80 1018.6
20260901173841 86 82 1.0 2.0 0.00 0.12 0.01 76 1018.7
20260901173344 87 59 0.0 2.0 0.00 0.12 0.01 74 1018.8
20260901172825 86 94 0.0 7.0 0.00 0.12 0.01 74 1018.8
20260901172329 87 92 2.0 7.0 0.00 0.12 0.01 74 1018.8
20260901171831 88 5 0.0 6.0 0.00 0.12 0.01 78 1018.9
20260901171334 90 5 1.0 6.0 0.00 0.12 0.01 76 1018.9
20260901170901 90 120 2.0 9.0 0.00 0.12 0.01 73 1018.9
20260901170344 90 36 1.0 9.0 0.00 0.12 0.01 73 1018.9
20260901165842 89 81 3.0 8.0 0.00 0.12 0.01 72 1018.8
20260901165323 91 76 4.0 11.0 0.00 0.12 0.01 70 1018.8
20260901164825 91 55 4.0 11.0 0.00 0.12 0.01 69 1018.8
20260901164328 91 93 1.0 3.0 0.00 0.12 0.01 69 1018.9
20260901163831 90 61 1.0 3.0 0.00 0.12 0.01 70 1019.0
20260901163333 90 332 1.0 3.0 0.00 0.12 0.01 72 1018.9
20260901162833 89 65 1.0 3.0 0.00 0.12 0.01 73 1018.8
20260901162342 89 74 1.0 3.0 0.00 0.12 0.01 73 1018.9
20260901161845 89 122 0.0 3.0 0.00 0.12 0.01 74 1018.9
20260901161345 90 61 2.0 3.0 0.00 0.12 0.01 74 1019.0
20260901160825 89 360 1.0 3.0 0.00 0.12 0.01 75 1019.0
20260901160327 89 34 1.0 4.0 0.00 0.12 0.01 75 1019.1
20260901155834 88 5 0.0 4.0 0.00 0.12 0.01 75 1019.2
20260901155333 88 59 1.0 4.0 0.00 0.12 0.01 76 1019.2
20260901154832 87 46 1.0 4.0 0.00 0.12 0.01 76 1019.3
20260901154401 87 344 0.0 2.0 0.00 0.12 0.01 77 1019.3